Weather History for Jacksonville, IL

Change the Weather History Date:

Tuesday, April 8, 2014

  Actual Average (KSPI) Record (KSPI)
Temperature  
Mean Temperature 52 °F 51 °F  
Max Temperature 62 °F 62 °F 86 °F (2001)
Min Temperature 41 °F 40 °F 22 °F (1997)
Degree Days  
Heating Degree Days 14 15  
Month to date heating degree days 127  
Since 1 July heating degree days 5109  
Cooling Degree Days 0 0  
Month to date cooling degree days 0  
Year to date cooling degree days 2  
Growing Degree Days 2 (Base 50)    
Moisture  
Dew Point 35 °F    
Average Humidity 58    
Maximum Humidity 87    
Minimum Humidity 31    
Precipitation  
Precipitation 0.00 in 0.11 in 1.74 in (1913)
Month to date precipitation 0.83  
Year to date precipitation 7.09  
Snow  
Snow 0.00 in 0.00 in 3.00 in (1982)
Month to date snowfall 0.2  
Since 1 July snowfall 20.8  
Snow Depth -    
Sea Level Pressure  
Sea Level Pressure 29.85 in    
Wind  
Wind Speed 10 mph (NW)    
Max Wind Speed 21 mph    
Max Gust Speed 28 mph    
Visibility 10 miles    
Events      
T = Trace of Precipitation, MM = Missing Value Source: NWS Daily Summary

Daily Weather History Graph

Daily Weather History Graph

Search for Another Location

Airport:

Trip Planner

Search our weather history database for the weather conditions in past years. The results will help you decide how hot, cold, wet, or windy it might be!

Date:

Astronomy

Apr. 08, 2014 Rise Set
Actual Time 6:34 AM CDT 7:32 PM CDT
Civil Twilight 6:06 AM CDT 7:59 PM CDT
Nautical Twilight 5:33 AM CDT 8:32 PM CDT
Astronomical Twilight 4:59 AM CDT 9:06 PM CDT
Moon 1:26 PM CDT (4/8) 2:46 AM CDT (4/8)
Length of Visible Light 13h 53m
Length of Day
12h 58m
Waxing Gibbous, 63% of the Moon is Illuminated
Apr 8
Waxing Gibbous
Apr 15
Full
Apr 22
Last Quarter
Apr 29
New
May 6
First Quarter

Hourly Weather History & Observations

Time (CDT) Temp. Windchill Dew Point Humidity Pressure Visibility Wind Dir Wind Speed Gust Speed Precip Events Conditions
12:15 AM 49.5 °F - 42.4 °F 77% 29.75 in 10.0 mi West 5.8 mph - N/A   Scattered Clouds
12:35 AM 45.7 °F 41.5 °F 41.0 °F 84% 29.75 in 10.0 mi West 8.1 mph - N/A   Clear
12:55 AM 48.4 °F - 41.5 °F 77% 29.75 in 10.0 mi West 8.1 mph - N/A   Clear
1:15 AM 49.1 °F - 41.4 °F 75% 29.75 in 10.0 mi West 6.9 mph - N/A   Mostly Cloudy
1:35 AM 47.8 °F - 41.0 °F 77% 29.75 in 10.0 mi West 6.9 mph - N/A   Mostly Cloudy
1:55 AM 45.5 °F 42.5 °F 40.1 °F 81% 29.74 in 10.0 mi West 5.8 mph - N/A   Mostly Cloudy
2:15 AM 44.6 °F 40.7 °F 40.1 °F 84% 29.74 in 10.0 mi West 6.9 mph - N/A   Mostly Cloudy
2:35 AM 45.1 °F 41.4 °F 40.3 °F 83% 29.75 in 10.0 mi West 6.9 mph - N/A   Mostly Cloudy
2:55 AM 43.3 °F 38.6 °F 39.6 °F 87% 29.75 in 10.0 mi West 8.1 mph - N/A   Mostly Cloudy
3:15 AM 44.4 °F 40.5 °F 40.1 °F 85% 29.75 in 10.0 mi WNW 6.9 mph - N/A   Mostly Cloudy
3:35 AM 47.3 °F - 40.6 °F 78% 29.75 in 10.0 mi WNW 6.9 mph - N/A   Overcast
3:55 AM 47.5 °F - 40.5 °F 77% 29.74 in 10.0 mi WNW 8.1 mph - N/A   Overcast
4:15 AM 46.9 °F - 40.6 °F 79% 29.74 in 10.0 mi WNW 8.1 mph - N/A   Overcast
4:35 AM 47.3 °F - 40.8 °F 78% 29.74 in 10.0 mi NW 9.2 mph - N/A   Overcast
4:55 AM 46.4 °F 42.4 °F 40.1 °F 79% 29.74 in 10.0 mi NW 8.1 mph - N/A   Scattered Clouds
5:15 AM 44.8 °F 41.0 °F 39.6 °F 82% 29.75 in 10.0 mi NW 6.9 mph - N/A   Clear
5:35 AM 44.6 °F 40.7 °F 39.4 °F 82% 29.76 in 10.0 mi NW 6.9 mph - N/A   Clear
5:55 AM 44.6 °F 40.7 °F 39.2 °F 81% 29.77 in 10.0 mi WNW 6.9 mph - N/A   Clear
6:15 AM 43.7 °F 39.1 °F 38.8 °F 83% 29.77 in 10.0 mi WNW 8.1 mph - N/A   Clear
6:35 AM 43.2 °F 37.9 °F 38.8 °F 85% 29.78 in 10.0 mi WNW 9.2 mph - N/A   Clear
6:55 AM 43.0 °F 37.7 °F 39.2 °F 86% 29.79 in 10.0 mi WNW 9.2 mph - N/A   Scattered Clouds
7:15 AM 43.7 °F 38.6 °F 39.2 °F 84% 29.80 in 10.0 mi NW 9.2 mph - N/A   Scattered Clouds
7:35 AM 43.7 °F 39.1 °F 39.2 °F 84% 29.80 in 10.0 mi NW 8.1 mph - N/A   Clear
7:55 AM 44.8 °F 40.4 °F 39.6 °F 82% 29.80 in 10.0 mi NW 8.1 mph - N/A   Clear
8:15 AM 46.0 °F 41.0 °F 39.7 °F 79% 29.81 in 10.0 mi NW 10.4 mph - N/A   Clear
8:35 AM 46.2 °F 41.2 °F 39.4 °F 77% 29.82 in 10.0 mi NW 10.4 mph - N/A   Clear
8:55 AM 47.7 °F - 39.6 °F 73% 29.82 in 10.0 mi NW 9.2 mph - N/A   Clear
9:15 AM 48.9 °F - 39.7 °F 71% 29.82 in 10.0 mi NW 11.5 mph - N/A   Clear
9:35 AM 50.2 °F - 39.7 °F 67% 29.83 in 10.0 mi NW 12.7 mph - N/A   Clear
9:55 AM 51.4 °F - 39.9 °F 65% 29.84 in 10.0 mi NW 12.7 mph - N/A   Clear
10:15 AM 53.2 °F - 39.6 °F 60% 29.84 in 10.0 mi NNW 13.8 mph - N/A   Clear
10:35 AM 54.9 °F - 37.9 °F 53% 29.84 in 10.0 mi NNW 12.7 mph 18.4 mph N/A   Clear
10:55 AM 56.3 °F - 37.4 °F 49% 29.85 in 10.0 mi NNW 16.1 mph 21.9 mph N/A   Clear
11:15 AM 57.0 °F - 36.7 °F 47% 29.85 in 10.0 mi North 18.4 mph 23.0 mph N/A   Clear
11:35 AM 57.2 °F - 34.9 °F 43% 29.85 in 10.0 mi NW 15.0 mph 25.3 mph N/A   Scattered Clouds
11:55 AM 58.1 °F - 34.3 °F 41% 29.85 in 10.0 mi NNW 18.4 mph 24.2 mph N/A   Scattered Clouds
12:15 PM 58.3 °F - 34.9 °F 41% 29.85 in 10.0 mi NW 17.3 mph 24.2 mph N/A   Scattered Clouds
12:35 PM 59.7 °F - 33.8 °F 38% 29.85 in 10.0 mi North 19.6 mph 25.3 mph N/A   Scattered Clouds
12:55 PM 59.0 °F - 33.1 °F 38% 29.85 in 10.0 mi NW 16.1 mph 26.5 mph N/A   Scattered Clouds
1:15 PM 60.1 °F - 32.7 °F 36% 29.85 in 10.0 mi NW 17.3 mph 25.3 mph N/A   Scattered Clouds
1:35 PM 62.6 °F - 33.8 °F 34% 29.85 in 10.0 mi NW 18.4 mph 27.6 mph N/A   Scattered Clouds
1:55 PM 61.2 °F - 32.5 °F 34% 29.85 in 10.0 mi NW 19.6 mph 26.5 mph N/A   Scattered Clouds
2:15 PM 61.3 °F - 32.5 °F 34% 29.85 in 10.0 mi WNW 19.6 mph 24.2 mph N/A   Scattered Clouds
2:35 PM 59.9 °F - 32.5 °F 36% 29.85 in 10.0 mi NW 18.4 mph 25.3 mph N/A   Scattered Clouds
2:55 PM 61.5 °F - 32.4 °F 33% 29.85 in 10.0 mi NW 18.4 mph - N/A   Scattered Clouds
3:15 PM 61.5 °F - 31.8 °F 33% 29.85 in 10.0 mi NNW 19.6 mph 25.3 mph N/A   Scattered Clouds
3:35 PM 61.7 °F - 31.8 °F 33% 29.85 in 10.0 mi NW 17.3 mph - N/A   Scattered Clouds
3:55 PM 61.9 °F - 30.6 °F 31% 29.85 in 10.0 mi NW 18.4 mph 25.3 mph N/A   Mostly Cloudy
4:15 PM 60.8 °F - 30.2 °F 31% 29.85 in 10.0 mi NW 18.4 mph 27.6 mph N/A   Scattered Clouds
4:35 PM 59.7 °F - 29.8 °F 32% 29.86 in 10.0 mi NW 13.8 mph 24.2 mph N/A   Scattered Clouds
4:55 PM 61.0 °F - 30.2 °F 31% 29.87 in 10.0 mi NW 20.7 mph 26.5 mph N/A   Scattered Clouds
5:15 PM 59.4 °F - 30.0 °F 33% 29.87 in 10.0 mi NW 18.4 mph 25.3 mph N/A   Scattered Clouds
5:35 PM 57.7 °F - 29.8 °F 35% 29.88 in 10.0 mi NNW 15.0 mph 21.9 mph N/A   Clear
5:55 PM 57.9 °F - 29.5 °F 34% 29.89 in 10.0 mi NW 13.8 mph 26.5 mph N/A   Scattered Clouds
6:15 PM 58.6 °F - 29.3 °F 33% 29.90 in 10.0 mi NW 15.0 mph 24.2 mph N/A   Scattered Clouds
6:35 PM 58.6 °F - 29.8 °F 34% 29.90 in 10.0 mi NW 16.1 mph 24.2 mph N/A   Mostly Cloudy
6:55 PM 57.0 °F - 29.8 °F 36% 29.91 in 10.0 mi NW 13.8 mph - N/A   Scattered Clouds
7:15 PM 55.8 °F - 29.3 °F 36% 29.92 in 10.0 mi NW 13.8 mph - N/A   Clear
7:35 PM 54.5 °F - 28.6 °F 37% 29.93 in 10.0 mi NW 10.4 mph - N/A   Clear
7:55 PM 52.7 °F - 29.3 °F 41% 29.94 in 10.0 mi NW 8.1 mph - N/A   Clear
8:15 PM 50.7 °F - 30.0 °F 45% 29.95 in 10.0 mi NW 8.1 mph - N/A   Clear
8:35 PM 50.2 °F - 29.7 °F 45% 29.96 in 10.0 mi WNW 8.1 mph - N/A   Clear
8:55 PM 49.3 °F - 30.2 °F 48% 29.97 in 10.0 mi NW 8.1 mph - N/A   Clear
9:15 PM 48.9 °F - 29.3 °F 47% 29.97 in 10.0 mi WNW 8.1 mph - N/A   Clear
9:35 PM 48.2 °F - 29.3 °F 48% 29.98 in 10.0 mi WNW 5.8 mph - N/A   Clear
9:55 PM 43.7 °F 41.1 °F 29.3 °F 57% 29.98 in 10.0 mi WNW 4.6 mph - N/A   Clear
10:15 PM 42.8 °F 38.6 °F 29.7 °F 60% 29.99 in 10.0 mi WNW 6.9 mph - N/A   Clear
10:35 PM 43.3 °F 39.9 °F 29.3 °F 58% 29.99 in 10.0 mi WNW 5.8 mph - N/A   Clear
10:55 PM 41.2 °F 37.3 °F 30.2 °F 65% 29.99 in 10.0 mi WNW 5.8 mph - N/A   Clear
11:15 PM 41.5 °F 37.1 °F 30.2 °F 64% 30.00 in 10.0 mi WNW 6.9 mph - N/A   Clear
11:35 PM 43.3 °F 38.6 °F 30.7 °F 61% 30.00 in 10.0 mi WNW 8.1 mph - N/A   Clear
11:55 PM 43.3 °F 38.6 °F 31.5 °F 63% 30.01 in 10.0 mi WNW 8.1 mph - N/A   Clear